MPEC 2008-E48 : 2008 EW5

The following Minor Planet Electronic Circular may be linked-to from your own Web pages, but must not otherwise be redistributed electronically.


Read MPEC 2008-E47 Read MPEC 2008-E49


M.P.E.C. 2008-E48                                Issued 2008 Mar. 5, 13:03 UT

     The Minor Planet Electronic Circulars contain information on unusual
         minor planets and routine data on comets.  They are published
   on behalf of Commission 20 of the International Astronomical Union by the
          Minor Planet Center, Smithsonian Astrophysical Observatory,
                          Cambridge, MA 02138, U.S.A.

             Prepared using the Tamkin Foundation Computer Network

                              MPC@CFA.HARVARD.EDU
          URL http://www.cfa.harvard.edu/iau/mpc.html  ISSN 1523-6714

                                   2008 EW5

Observations:
     K08E05W* C2008 03 04.39413 12 18 11.41 +14 14 30.6          20.6 V EE048G96
     K08E05W  C2008 03 04.39920 12 18 12.38 +14 14 14.2          20.8 V EE048G96
     K08E05W  C2008 03 04.40419 12 18 13.28 +14 13 58.7          20.9 V EE048G96
     K08E05W  C2008 03 04.40924 12 18 14.25 +14 13 42.5          20.7 V EE048G96
     K08E05W  C2008 03 04.43880 12 18 19.80 +14 12 08.6          20.4 V EE048G96
     K08E05W  C2008 03 04.44461 12 18 20.88 +14 11 50.2          20.3 V EE048G96
     K08E05W  C2008 03 04.45045 12 18 21.99 +14 11 31.3          20.5 V EE048G96
     K08E05W  C2008 03 04.45628 12 18 23.07 +14 11 12.6          20.7 V EE048G96
     K08E05W  C2008 03 05.14390 12 20 49.27 +13 34 46.8                 EE048J95
     K08E05W  C2008 03 05.15400 12 20 51.18 +13 34 13.8                 EE048J95
     K08E05W  C2008 03 05.16408 12 20 53.10 +13 33 41.9          20.4 R EE048J95
     K08E05W  C2008 03 05.40474 12 21 43.99 +13 21 30.9          20.4 V EE048G96
     K08E05W  C2008 03 05.41100 12 21 45.10 +13 21 11.2          20.3 V EE048G96
     K08E05W  C2008 03 05.41726 12 21 46.22 +13 20 51.1          20.2 V EE048G96
     K08E05W  C2008 03 05.42358 12 21 47.37 +13 20 31.5          20.0 V EE048G96

Observer details:
G96 Mt. Lemmon Survey.  Observer A. Boattini.  Measurers E. C. Beshore,
    A. Boattini, G. J. Garradd, A. R. Gibbs, A. D. Grauer, R. E. Hill,
    R. A. Kowalski, S. M. Larson, R. H. McNaught.  1.5-m reflector + CCD.
J95 Great Shefford.  Observer P. Birtwhistle.  0.40-m f/6.0 Schmidt-Cassegrain
    + CCD.

Orbital elements:
2008 EW5                                                 Earth MOID = 0.1070 AU
Epoch 2008 May 14.0 TT = JDT 2454600.5                  MPC
M  27.91740              (2000.0)            P               Q
n   0.34732094     Peri.  132.24793     -0.90826176     -0.41806403
a   2.0043893      Node    23.05498     +0.37011674     -0.82154620
e   0.4550825      Incl.    2.46217     +0.19512602     -0.38766521
P   2.84           H   24.1           G   0.15           U   8
Residuals in seconds of arc
080304 G96  0.2-  0.1-    080304 G96  0.0   0.3+    080305 J95  0.1-  0.2-
080304 G96  0.2+  0.4-    080304 G96  0.1+  0.1+    080305 G96  0.0   0.0
080304 G96  0.3-  0.0     080304 G96  0.3-  0.1+    080305 G96  0.1-  0.0
080304 G96  0.1+  0.2-    080305 J95  0.2+  0.6+    080305 G96  0.2-  0.3-
080304 G96  0.2+  0.1+    080305 J95  0.0   0.3-    080305 G96  0.0   0.2+

Ephemeris:
2008 EW5                 a,e,i = 2.00, 0.46, 2                   q = 1.0922
Date    TT    R. A. (2000) Decl.     Delta      r     Elong.  Phase     V
2008 03 05    12 20.34   +13 43.2    0.113    1.098   159.6    18.3    20.5
2008 03 15    12 48.81   +05 30.8    0.126    1.115   162.6    15.5    20.7
2008 03 25    13 06.06   -00 59.3    0.148    1.142   167.7    10.7    20.9
2008 04 04    13 15.48   -05 36.2    0.179    1.178   174.5     4.7    21.1
2008 04 14    13 20.76   -08 43.6    0.219    1.222   177.6     2.0    21.5

Timothy B. Spahr             (C) Copyright 2008 MPC           M.P.E.C. 2008-E48

Read MPEC 2008-E47 Read MPEC 2008-E49


Our Web policy. Index to the CBAT/MPC/ICQ pages.

MPC

Valid HTML 4.01!